Tracking 25686 objects as of 25-May-2022
HD Live streaming from Space Station
objects crossing your sky now

SCOUT G-1 R/B

Track SCOUT G-1 R/B now!
10-day predictions


NORAD ID: 19421
Int'l Code: 1988-074C
Perigee: 1,037.9 km
Apogee: 1,182.0 km
Inclination: 90.0 °
Period: 107.3 minutes
Semi major axis: 7480 km
RCS: 0.883 m2 (medium)
Launch date: August 25, 1988
Source: United States (US)
Launch site: AIR FORCE WESTERN TEST RANGE (AFWTR)

Note: This is a ROCKET BODY
aabbcc
Your satellite tracking list
Your tracking list is empty




NASA's NSSDC Master Catalog

Two Line Element Set (TLE):
1 19421U 88074C   22144.71158686  .00000067  00000-0  10141-3 0  9992
2 19421  90.0072  18.1608 0096290  15.4513  48.9253 13.41733887651745
Source of the keplerian elements: AFSPC